Regional Weather Roundup
Issued by NWS

Home | Current Version | Previous Version | Graphics & Text | Print | Product List | Glossary On
Versions: 1 2 3 4 5 6 7 8 9 10 11 12 13 14 15 16 17 18 19 20 21 22 23 24 25 26 27 28 29 30 31 32 33 34 35 36 37 38 39 40 41 42 43 44 45 46 47 48 49 50
124
ASUS44 KJAN 181803
RWRMS

MISSISSIPPI HOURLY WEATHER ROUNDUP
NATIONAL WEATHER SERVICE JACKSON MS
100 PM CDT FRI APR 18 2014

NOTE: "FAIR: INDICATES FEW OR NO CLOUDS BELOW 12,000 FEET WITH NO
SIGNIFICANT WEATHER AND/OR OBSTRUCTIONS TO VISIBILITY.

MSZ001>002-007>008-010>013-018>021-025>028-034>036-181900-
NORTHWEST MISSISSIPPI

CITY           SKY/WX    TMP DP  RH WIND       PRES   REMARKS
CLARKSDALE       N/A     68  54  60 N9G18     30.23F
CLEVELAND      MOCLDY    70  57  64 NE9       30.20S
GREENWOOD      CLOUDY    71  55  56 NE9       30.18F
6HR MIN TEMP:  55; 6HR MAX TEMP:  72;

GREENVILLE     MOSUNNY   73  57  57 N9        30.18F
6HR MIN TEMP:  60; 6HR MAX TEMP:  73;

GRENADA        FAIR      70  54  56 SE10      30.20F
OLIVE BRANCH   PTSUNNY   64  52  63 NE6       30.23F
OXFORD         CLOUDY    66  50  55 NE8       30.23S
TUNICA         PTCLDY    68  48  49 NE7       30.23F
$$

MSZ003>006-009-014>017-022>024-029>033-037>039-181900-
NORTHEAST MISSISSIPPI

CITY           SKY/WX    TMP DP  RH WIND       PRES   REMARKS
BELMONT        DRIZZLE   54  53  94 NE6       30.26F
COLUMBUS AFB   CLOUDY    62  55  75 E7        30.21F
6HR MIN TEMP:  57; 6HR MAX TEMP:  62; 6HR PCP: TRACE;

CORINTH        CLOUDY    68  46  45 E3        30.24F
GOLDN TRIANGLE CLOUDY    61  55  82 NE9       30.24F
STARKVILLE     CLOUDY    59  54  82 CALM      30.21F
TUPELO         CLOUDY    63  49  60 E7        30.24F
6HR MIN TEMP:  57; 6HR MAX TEMP:  65;

$$

MSZ040-058-181900-
CENTRAL MISSISSIPPI

CITY           SKY/WX    TMP DP  RH WIND       PRES   REMARKS
JACKSON INTL   PTSUNNY   69  57  65 N8        30.16F
6HR MIN TEMP:  57; 6HR MAX TEMP:  69;

JACKSON HAWKNS PTSUNNY   69  56  62 NE10G17   30.16F
6HR MIN TEMP:  58; 6HR MAX TEMP:  70;

MERIDIAN KEY   CLOUDY    59  54  83 NE10G22   30.18F
6HR MIN TEMP:  56; 6HR MAX TEMP:  59;

MERIDIAN NAS   CLOUDY    60  52  74 NE10      30.19F
6HR MIN TEMP:  57; 6HR MAX TEMP:  60;

RAYMOND        FAIR      72  66  83 E8        30.15F
VICKSBURG      NOT AVBL
$$

MSZ059>079-181900-
SOUTH MISSISSIPPI

CITY           SKY/WX    TMP DP  RH WIND       PRES   REMARKS
BROOKHAVEN     MOCLDY    70  59  68 NE6       30.15F
COLUMBIA       CLOUDY    64  59  82 MISG      30.13S
HATTIESBURG    CLOUDY    61  57  87 N10       30.14F
6HR MIN TEMP:  60; 6HR MAX TEMP:  61; 6HR PCP: TRACE;

MCCOMB         PTSUNNY   69  57  65 NE14G20   30.11F
6HR MIN TEMP:  59; 6HR MAX TEMP:  70;

NATCHEZ        MOSUNNY   72  57  60 NE12      30.13F
6HR MIN TEMP:  54; 6HR MAX TEMP:  72;

PINE BELT      CLOUDY    61  55  82 N12       30.15S
6HR MIN TEMP:  57; 6HR MAX TEMP:  61; 6HR PCP:  0.01;

$$

MSZ080>082-181900-
COASTAL MISSISSIPPI

CITY           SKY/WX    TMP DP  RH WIND       PRES   REMARKS
BAY ST LOUIS     N/A     64  57  77 N17G23    30.08F
BILOXI         CLOUDY    67  60  77 N16G22    30.05F
6HR MIN TEMP:  60; 6HR MAX TEMP:  68; 6HR PCP:  0.01;

PASCAGOULA     CLOUDY    66  60  81 NE15G21   30.04F
6HR MIN TEMP:  60; 6HR MAX TEMP:  66; 6HR PCP:  0.24;

GULFPORT       CLOUDY    70  59  68 N16G23    30.06S
6HR MIN TEMP:  62; 6HR MAX TEMP:  70; 6HR PCP:  0.10;

$$



USA.gov is the U.S. government's official web portal to all federal, state and local government web resources and services.